Regional Weather Roundup
Issued by NWS Green Bay, WI

Home | Current Version | Previous Version | Graphics & Text | Print | Product List | Glossary Off
Versions: 1 2 3 4 5 6 7 8 9 10 11 12 13 14 15 16 17 18 19 20 21 22 23 24 25 26 27 28 29 30 31 32 33 34 35 36 37 38 39 40 41 42 43 44 45 46 47 48 49 50

000
ASUS43 KGRB 220610
RWRGRB

NORTH-CENTRAL AND NORTHEAST WISCONSIN REGIONAL WEATHER ROUNDUP
NATIONAL WEATHER SERVICE GREEN BAY WI
100 AM CDT MON SEP 22 2014

WIZ005-009-010>012-018-019-220700-
NORTH CENTRAL WISCONSIN

CITY           SKY/WX    TMP DP  RH WIND       PRES   REMARKS
IRONWOOD       CLEAR     39  37  93 CALM      30.15S
MANITOWISH WTR CLEAR     34  34 100 CALM      30.16S
ARBOR VITAE    CLEAR     39  37  93 CALM      30.17S
EAGLE RIVER    FOG       32  32 100 CALM      30.15F VSB 1/4
LAND O LAKES   CLEAR     32  32 100 CALM      30.16S
RHINELANDER    CLEAR     33  32  96 W3        30.17F
PHILLIPS       CLEAR     37  37 100 CALM      30.18S
ANTIGO         CLEAR     36  35  97 CALM      30.17S
TOMAHAWK       CLEAR     32  32  99 CALM      30.18S
MERRILL        CLEAR     36  36 100 CALM      30.18S
$$

WIZ013-073-220700-
NORTHEAST WISCONSIN

CITY           SKY/WX    TMP DP  RH WIND       PRES   REMARKS
IRON MOUNTAIN  CLEAR     35  33  92 CALM      30.13F
MARINETTE      CLEAR     37  36  93 CALM      30.15S
OCONTO         CLEAR     37  37 100 CALM      30.17S
$$

WIZ017-030-035>037-045-220700-
CENTRAL WISCONSIN

CITY           SKY/WX    TMP DP  RH WIND       PRES   REMARKS
MEDFORD        CLEAR     36  36  99 CALM      30.19S
WAUSAU         CLEAR     41  39  93 CALM      30.17F
MOSINEE        CLEAR     39  37  93 W5        30.19S
MARSHFIELD     CLEAR     41  40  96 W5        30.19S
WISC RAPIDS    CLEAR     41  39  93 CALM      30.20F
STEVENS POINT  CLEAR     37  36  97 CALM      30.19S
WAUPACA        CLEAR     43  41  93 CALM      30.19R
SHAWANO        CLEAR     41  40  93 CALM      30.18S FOG
CLINTONVILLE   CLEAR     39  37  93 CALM      30.18S
$$

WIZ038-039-048-051-220700-
FOX VALLEY

CITY           SKY/WX    TMP DP  RH WIND       PRES   REMARKS
NWS GREEN BAY  CLEAR     41  39  93 CALM      30.17S
APPLETON       CLEAR     41  37  87 W7        30.18S
OSHKOSH        CLEAR     42  40  92 CALM      30.18R
FOND DU LAC    CLEAR     43  38  82 NW5       30.19R
$$

WIZ022-050-052-220700-
EAST CENTRAL WISCONSIN

CITY           SKY/WX    TMP DP  RH WIND       PRES   REMARKS
STURGEON BAY   CLEAR     46  37  71 N10       30.16S
MANITOWOC      CLEAR     43  41  93 CALM      30.17R
SHEBOYGAN      CLEAR     43  38  82 NW3       30.18R
$$

LMZ563-521-522-541>543-220700-
LAKESHORE

STATION/POSITION TIME  TEMP    WIND        PRES    VSBY  WAVE
                       AIR SEA DIR/SP/G                  HT/PER
                 (UTC) (F)     (DEG/KT/KT) (MB)    (MI)  (FT/S)
SHEBOYGAN LKSHOR 0600   46 51  320/  6/  8 1022.4R
KEWAUNEE LKSHORE 0600   44     320/  3/  4 1020.4F
NORTHPORT PIER   0600   49     340/ 15/ 20 1021.0R
N MID LAKE BUOY  0600   48 57  340/ 16/ 19 1020.2R         3/ 5
S GREEN BAY BUOY 0600   49     VRB  8/ 12  1022.2S
CHAMBERS ISLAND  0600   48     330/ 11/ 13 1021.3S
MENOMINEE LKSHOR 0600   47     340/  7/  8 1021.8R
$$



USA.gov is the U.S. government's official web portal to all federal, state and local government web resources and services.